Probability
0 0 0 3 0 0 0 3 3 6 6 3 6 6 16 6 16 13 10 10 13 10 6 3 3 3 0 0 0 0 0 0 0 0 0 0 0 0 0 0 0 0 0
0 0 0 6 3 3 0 0 0 3 3 3 3 3 3 6 3 0 0 6 3 3 3 0 0 0 0 0 0 0 0 0 0 0 0 0 0 0 0 0 0 0 0
0 0 0 6 6 0 0 0 3 0 0 0 3 3 0 6 3 0 0 3 0 0 0 0 0 0 0 0 0 0 0 0 0 0 0 0 0 0 0 0 0 0 0
0 0 0 0 3 3 3 0 3 0 3 0 0 0 0 0 3 0 0 0 0 0 0 0 0 0 0 0 0 0 0 0 0 0 0 0 0 0 0 0 0 0 0
0 0 0 0 3 0 0 3 0 0 3 3 0 0 0 0 0 0 0 0 0 0 0 0 0 0 0 0 0 0 0 0 0 0 0 0 0 0 0 0 0 0 0
0 0 0 0 3 0 0 0 0 0 0 0 0 0 0 0 0 0 0 0 0 0 0 0 0 0 0 0 0 0 0 0 0 0 0 0 0 0 0 0 0 0 0
0 0 0 0 0 3 3 0 0 0 0 0 0 0 0 0 0 0 0 0 0 0 0 0 0 0 0 0 0 0 0 0 0 0 0 0 0 0 0 0 0 0 0
0 0 0 0 0 0 3 3 0 0 0 0 0 0 0 0 0 0 0 0 0 0 0 0 0 0 0 0 0 0 0 0 0 0 0 0 0 0 0 0 0 0 0
0 0 0 0 0 0 0 0 0 0 0 0 0 0 0 0 0 0 0 0 0 0 0 0 0 0 0 0 0 0 0 0 0 0 0 0 0 0 0 0 0 0 0
0 0 0 0 0 0 0 0 0 0 0 0 0 0 0 0 0 0 0 0 0 0 0 0 0 0 0 0 0 0 0 0 0 0 0 0 0 0 0 0 0 0 0
0 0 0 0 0 0 0 0 0 0 0 0 0 0 0 0 0 0 0 0 0 0 0 0 0 0 0 0 0 0 0 0 0 0 0 0 0 0 0 0 0 0 0
0 0 0 0 0 0 0 0 0 0 0 0 0 0 0 0 0 0 0 0 0 0 0 0 0 0 0 0 0 0 0 0 0 0 0 0 0 0 0 0 0 0 0
0 0 0 0 0 0 0 0 0 0 0 0 0 0 0 0 0 0 0 0 0 0 0 0 0 0 0 0 0 0 0 0 0 0 0 0 0 0 0 0 0 0 0
0 0 0 0 0 0 0 0 0 0 0 0 0 0 0 0 0 0 0 0 0 0 0 0 0 0 0 0 0 0 0 0 0 0 0 0 0 0 0 0 0 0 0
0 0 0 0 0 0 0 0 0 0 0 0 0 0 0 0 0 0 0 0 0 0 0 0 0 0 0 0 0 0 0 0 0 0 0 0 0 0 0 0 0 0 0
0 0 0 0 0 0 0 0 0 0 0 0 0 0 0 0 0 0 0 0 0 0 0 0 0 0 0 0 0 0 0 0 0 0 0 0 0 0 0 0 0 0 0
0 0 0 0 0 0 0 0 0 0 0 0 0 0 0 0 0 0 0 0 0 0 0 0 0 0 0 0 0 0 0 0 0 0 0 0 0 0 0 0 0 0 0
0 0 0 0 0 0 0 0 0 0 0 0 0 0 0 0 0 0 0 0 0 0 0 0 0 0 0 0 0 0 0 0 0 0 0 0 0 0 0 0 0 0 0
0 0 0 0 0 0 0 0 0 0 0 0 0 0 0 0 0 0 0 0 0 0 0 0 0 0 0 0 0 0 0 0 0 0 0 0 0 0 0 0 0 0 0
0 0 0 0 0 0 0 0 0 0 0 0 0 0 0 0 0 0 0 0 0 0 0 0 0 0 0 0 0 0 0 0 0 0 0 0 0 0 0 0 0 0 0
0 0 0 0 0 0 0 0 0 0 0 0 0 0 0 0 0 0 0 0 0 0 0 0 0 0 0 0 0 0 0 0 0 0 0 0 0 0 0 0 0 0 0
0 0 0 0 0 0 0 0 0 0 0 0 0 0 0 0 0 0 0 0 0 0 0 0 0 0 0 0 0 0 0 0 0 0 0 0 0 0 0 0 0 0 0
0 0 0 0 0 0 0 0 0 0 0 0 0 0 0 0 0 0 0 0 0 0 0 0 0 0 0 0 0 0 0 0 0 0 0 0 0 0 0 0 0 0 0
0 0 0 0 0 0 0 0 0 0 0 0 0 0 0 0 0 0 0 0 0 0 0 0 0 0 0 0 0 0 0 0 0 0 0 0 0 0 0 0 0 0 0
0 0 0 0 0 0 0 0 0 0 0 0 0 0 0 0 0 0 0 0 0 0 0 0 0 0 0 0 0 0 0 0 0 0 0 0 0 0 0 0 0 0 0
0 0 0 0 0 0 0 0 0 0 0 0 0 0 0 0 0 0 0 0 0 0 0 0 0 0 0 0 0 0 0 0 0 0 0 0 0 0 0 0 0 0 0
Height
5872 5872 5873 5873 5874 5875 5875 5876 5877 5878 5878 5879 5880 5880 5881 5881 5881 5881 5882 5882 5882 5882 5881 5881 5881 5880 5880 5879 5878 5878 5877 5876 5875 5874 5873 5871 5870 5869 5868 5866 5865 5863 5861
5872 5872 5873 5873 5874 5875 5876 5876 5877 5878 5878 5879 5880 5880 5881 5881 5882 5882 5882 5882 5882 5882 5882 5882 5881 5881 5880 5880 5879 5878 5877 5877 5876 5875 5874 5872 5871 5870 5868 5867 5865 5864 5862
5872 5872 5873 5873 5874 5875 5876 5876 5877 5878 5879 5879 5880 5881 5881 5882 5882 5882 5882 5882 5883 5882 5882 5882 5882 5882 5881 5881 5880 5879 5878 5878 5877 5876 5874 5873 5872 5871 5869 5868 5866 5864 5863
5872 5873 5873 5874 5874 5875 5876 5877 5878 5878 5879 5879 5880 5881 5881 5882 5882 5883 5883 5883 5883 5883 5883 5883 5883 5882 5882 5881 5881 5880 5879 5878 5877 5876 5875 5874 5873 5871 5870 5868 5867 5865 5863
5872 5873 5874 5874 5875 5875 5876 5877 5878 5879 5879 5880 5881 5881 5882 5882 5883 5883 5883 5884 5884 5884 5884 5884 5884 5883 5883 5882 5882 5881 5880 5879 5878 5877 5876 5875 5874 5872 5871 5869 5867 5866 5864
5873 5873 5874 5874 5875 5876 5877 5878 5879 5879 5880 5881 5881 5882 5882 5883 5883 5884 5884 5884 5884 5885 5885 5885 5884 5884 5884 5883 5882 5882 5881 5880 5879 5878 5877 5876 5874 5873 5871 5870 5868 5866 5864
5873 5874 5874 5875 5875 5876 5877 5878 5879 5880 5880 5881 5882 5882 5883 5883 5884 5884 5885 5885 5885 5885 5885 5885 5885 5885 5884 5884 5883 5883 5882 5881 5880 5879 5878 5876 5875 5873 5871 5869 5867 5865 5863
5873 5874 5874 5875 5876 5876 5877 5878 5879 5880 5881 5882 5882 5883 5883 5884 5885 5885 5885 5886 5886 5886 5886 5886 5886 5885 5885 5885 5884 5883 5882 5882 5880 5879 5878 5876 5875 5873 5871 5869 5866 5864 5861
5873 5873 5874 5875 5876 5877 5878 5879 5880 5881 5882 5882 5883 5883 5884 5885 5885 5886 5886 5886 5887 5887 5887 5887 5886 5886 5886 5885 5884 5884 5883 5882 5881 5879 5878 5876 5874 5872 5870 5867 5865 5862 5859
5872 5873 5874 5875 5876 5877 5878 5879 5880 5881 5882 5883 5883 5884 5885 5885 5886 5886 5887 5887 5887 5887 5887 5887 5887 5886 5886 5885 5885 5884 5883 5882 5880 5879 5877 5875 5873 5870 5868 5865 5863 5860 5857
5872 5873 5874 5875 5876 5877 5878 5879 5880 5881 5882 5883 5883 5884 5885 5885 5886 5886 5887 5887 5887 5887 5887 5887 5887 5886 5886 5885 5884 5883 5882 5881 5879 5877 5875 5873 5871 5869 5866 5863 5860 5857 5854
5871 5872 5873 5874 5876 5877 5878 5879 5880 5881 5882 5883 5883 5884 5885 5886 5886 5887 5887 5887 5887 5887 5887 5887 5887 5886 5885 5884 5883 5882 5881 5879 5878 5876 5874 5871 5869 5866 5863 5860 5857 5854 5851
5869 5870 5872 5873 5875 5876 5878 5879 5879 5881 5882 5882 5883 5884 5885 5885 5886 5886 5887 5887 5887 5887 5887 5886 5886 5885 5884 5883 5882 5881 5879 5878 5876 5873 5871 5869 5866 5863 5860 5857 5854 5851 5847
5868 5869 5871 5872 5874 5875 5877 5878 5879 5880 5881 5882 5883 5884 5884 5885 5886 5886 5886 5886 5886 5886 5886 5885 5885 5884 5883 5882 5880 5879 5877 5875 5873 5871 5868 5866 5863 5860 5857 5854 5850 5847 5843
5866 5867 5869 5870 5872 5874 5875 5877 5878 5879 5880 5881 5882 5883 5884 5884 5885 5885 5885 5885 5885 5885 5885 5884 5883 5882 5881 5880 5878 5876 5874 5872 5870 5867 5865 5862 5859 5856 5853 5849 5846 5842 5838
5864 5865 5867 5868 5870 5872 5874 5875 5876 5878 5879 5880 5881 5881 5882 5883 5883 5884 5884 5884 5884 5883 5883 5882 5881 5880 5878 5877 5875 5873 5871 5869 5866 5863 5861 5858 5855 5852 5848 5845 5841 5837 5832
5861 5862 5864 5866 5868 5870 5872 5873 5875 5876 5877 5878 5879 5880 5881 5881 5882 5882 5882 5882 5882 5881 5881 5880 5878 5877 5875 5874 5872 5869 5867 5865 5862 5859 5856 5853 5850 5847 5843 5839 5835 5831 5826
5857 5859 5861 5863 5865 5867 5869 5871 5872 5874 5875 5876 5877 5878 5879 5879 5879 5880 5879 5879 5879 5878 5878 5877 5875 5874 5872 5870 5868 5865 5862 5860 5857 5854 5851 5848 5844 5841 5837 5833 5829 5824 5820
5854 5856 5858 5860 5862 5864 5866 5868 5870 5871 5873 5874 5874 5875 5876 5876 5876 5876 5876 5876 5876 5875 5874 5873 5872 5870 5868 5865 5863 5860 5857 5854 5851 5848 5845 5842 5838 5834 5830 5826 5822 5817 5812
5850 5852 5854 5856 5859 5861 5863 5865 5867 5868 5869 5870 5871 5872 5872 5873 5873 5873 5873 5872 5872 5871 5870 5869 5867 5865 5863 5860 5858 5855 5852 5849 5845 5842 5839 5835 5831 5827 5823 5819 5814 5809 5804
5845 5848 5851 5853 5855 5857 5859 5861 5862 5863 5864 5866 5867 5868 5868 5869 5869 5869 5868 5868 5867 5866 5865 5864 5862 5860 5857 5855 5852 5849 5846 5842 5839 5835 5832 5828 5824 5819 5815 5810 5806 5800 5795
5841 5843 5846 5848 5850 5852 5854 5855 5857 5858 5860 5861 5862 5863 5863 5863 5864 5864 5863 5863 5862 5861 5859 5858 5856 5854 5851 5848 5846 5842 5839 5835 5831 5827 5824 5820 5816 5811 5807 5802 5797 5791 5786
5835 5838 5840 5842 5844 5846 5848 5849 5852 5854 5855 5857 5857 5857 5857 5858 5858 5858 5857 5857 5856 5855 5853 5851 5849 5847 5845 5842 5839 5835 5832 5828 5824 5819 5815 5811 5807 5802 5798 5793 5787 5782 5776
5829 5831 5833 5835 5837 5840 5841 5844 5846 5848 5849 5850 5850 5851 5851 5852 5852 5851 5851 5850 5849 5848 5846 5844 5842 5840 5838 5835 5831 5828 5824 5820 5816 5811 5807 5802 5798 5793 5788 5783 5777 5771 5765
5821 5823 5826 5828 5830 5833 5835 5838 5839 5841 5843 5843 5844 5845 5845 5845 5845 5844 5844 5843 5842 5840 5839 5837 5834 5832 5830 5827 5824 5820 5816 5812 5807 5803 5798 5793 5788 5783 5778 5772 5766 5761 5754
5812 5815 5817 5820 5823 5825 5827 5830 5832 5834 5835 5835 5836 5837 5837 5837 5837 5837 5836 5835 5834 5832 5830 5828 5826 5824 5821 5818 5815 5811 5808 5804 5799 5794 5789 5783 5778 5773 5767 5762 5756 5750 5743
Wind_Speed
4 5 6 5 6 6 6 6 5 5 6 6 6 5 4 3 3 3 2 2 2 3 4 5 6 6 7 8 9 9 10 10 11 11 12 12 13 13 13 14 14 15 15
4 5 5 5 5 6 6 5 5 5 6 6 7 6 5 4 3 3 2 2 3 4 4 5 6 7 8 8 9 9 10 10 11 11 12 13 13 13 14 14 14 15 15
4 5 5 5 5 5 6 6 6 6 7 6 7 7 5 4 4 3 2 3 3 4 5 6 7 7 8 8 9 10 10 11 11 12 12 13 13 13 14 14 14 15 15
5 5 6 6 5 5 5 6 7 7 7 7 7 7 5 4 4 3 3 3 4 4 5 6 7 8 8 9 9 10 11 11 12 12 12 13 13 13 14 14 14 14 15
5 5 6 6 6 6 6 6 7 7 7 8 7 7 5 5 4 3 4 4 4 5 6 6 7 8 8 9 10 10 11 11 12 12 12 13 13 13 14 14 14 14 15
6 6 6 6 7 7 7 7 7 7 8 8 7 7 6 5 5 4 5 5 5 6 6 7 7 8 9 9 10 10 11 11 11 12 12 12 12 13 13 14 14 15 16
6 7 6 6 7 7 7 7 8 7 8 8 8 7 6 6 5 5 6 6 6 6 7 7 8 8 9 9 10 10 10 10 11 11 11 12 12 13 14 15 16 17 18
7 8 7 7 7 7 8 9 9 8 8 9 8 7 7 7 6 6 6 6 7 7 7 7 8 8 8 9 9 9 9 9 10 10 11 12 13 14 16 17 18 19 20
9 9 8 8 8 8 9 9 9 9 9 9 8 8 8 7 7 7 6 6 7 7 7 7 7 7 7 8 8 8 8 9 10 11 12 13 15 16 18 19 20 22 23
10 10 9 9 9 9 9 10 9 9 9 9 8 8 8 8 7 7 6 6 6 6 6 6 6 6 6 6 7 7 8 9 11 12 14 15 17 18 20 21 22 24 25
11 11 10 10 10 10 10 10 10 10 9 9 9 9 8 8 7 6 6 5 5 5 5 5 5 5 5 5 6 7 9 11 12 14 15 17 19 20 22 23 24 25 27
14 13 12 12 11 11 11 11 11 10 10 10 10 9 8 8 7 6 5 5 4 4 4 3 3 3 4 5 7 9 10 12 14 15 17 19 20 22 23 25 26 27 28
15 15 14 13 13 13 13 12 12 12 11 11 10 9 8 8 7 6 5 4 4 3 2 1 2 3 5 7 9 10 12 14 16 18 19 21 22 23 25 26 27 29 31
16 16 15 14 14 14 14 13 13 13 12 11 10 9 8 8 7 6 5 4 3 1 1 2 3 5 7 9 11 13 15 16 18 20 21 23 24 25 26 28 30 32 33
18 17 17 16 16 16 16 15 14 14 13 12 11 10 9 8 7 6 5 4 3 3 3 4 6 8 10 12 13 15 17 19 20 22 23 25 26 27 29 30 32 34 36
20 19 19 18 18 17 17 16 15 14 14 13 12 11 10 9 8 7 6 5 5 6 6 8 9 11 13 14 16 18 20 21 23 24 26 27 28 30 31 33 35 37 38
23 22 21 21 20 19 18 18 17 16 15 14 12 12 11 10 9 8 8 8 8 9 10 11 12 14 16 17 19 21 22 24 25 27 28 29 31 32 34 35 37 39 41
25 24 23 23 22 21 21 20 19 18 17 15 14 13 12 12 11 11 10 11 11 12 13 14 15 17 19 21 22 24 25 26 28 29 30 32 33 35 37 38 41 42 44
27 26 25 25 24 24 23 22 20 19 18 17 16 16 15 14 14 14 14 14 15 15 16 18 19 21 22 24 25 27 28 29 31 32 33 34 36 38 40 42 44 45 46
30 29 28 27 27 26 24 23 22 21 21 20 19 18 18 17 17 17 17 17 18 19 20 21 23 24 25 27 28 30 31 32 34 35 36 37 39 41 43 45 46 47 49
32 31 30 29 28 27 26 25 25 25 24 23 22 21 21 21 20 20 20 21 21 22 23 24 26 27 28 29 31 32 34 35 37 38 39 40 42 43 45 47 48 50 51
34 33 33 32 31 30 29 29 29 28 26 24 24 23 24 24 24 23 24 24 25 25 26 27 28 29 31 32 33 35 36 38 39 41 42 43 44 46 48 49 50 52 53
37 35 35 35 34 34 33 33 31 29 28 27 27 28 27 27 26 26 27 27 28 28 29 30 31 32 33 35 36 37 39 40 41 43 44 45 47 48 50 51 52 54 54
39 39 39 38 38 37 37 35 33 32 31 31 32 31 30 29 29 29 30 30 31 31 32 33 34 35 36 37 38 40 41 42 43 45 46 48 49 50 52 53 54 55 56
43 43 42 41 41 40 39 37 36 35 34 35 34 33 33 32 32 32 32 33 34 34 35 36 37 38 39 40 41 42 43 44 46 47 48 49 51 52 54 55 56 57 58
46 45 44 43 43 42 41 40 39 38 38 38 37 36 36 35 35 35 35 36 36 37 38 39 39 40 41 43 44 45 46 47 47 48 50 51 52 54 56 57 57 59 60
Wind_Direction
170 178 177 180 191 200 207 215 201 196 181 179 176 168 160 159 156 148 135 96 56 44 40 37 38 35 32 32 33 34 32 31 31 31 31 31 30 28 27 26 24 24 23
155 164 172 179 189 197 204 204 196 191 181 179 176 171 165 159 151 142 131 89 65 56 49 46 44 43 43 42 41 40 37 36 36 36 35 33 30 29 28 28 27 26 24
147 155 160 166 174 186 193 196 193 192 184 178 174 170 164 158 148 142 118 95 73 62 56 54 54 52 50 47 44 42 42 41 40 38 35 33 32 32 31 31 29 26 23
148 153 158 160 164 167 175 184 187 186 183 174 169 164 165 165 161 134 108 93 80 72 67 64 60 56 53 50 48 47 46 43 41 39 38 37 36 35 33 31 27 23 18
148 151 157 159 163 165 168 175 176 175 173 166 163 162 164 161 149 127 109 101 90 83 75 69 64 60 58 55 52 50 48 46 44 42 41 39 37 33 29 24 19 14 9
157 153 155 158 162 167 171 173 171 167 166 163 158 159 156 151 143 130 116 105 96 88 81 74 68 65 62 59 56 53 50 48 46 43 40 36 30 24 19 13 7 1 356
170 162 158 159 164 170 175 174 171 170 167 162 157 154 149 143 137 126 113 106 99 90 81 75 71 68 65 62 58 54 51 47 43 38 32 24 17 10 4 358 353 349 346
179 172 167 166 168 170 175 175 174 172 167 162 156 151 147 142 134 126 115 106 99 90 83 78 75 72 68 62 57 52 47 41 33 24 16 8 2 356 352 348 344 342 339
185 179 177 174 173 171 173 174 175 175 171 166 161 156 151 145 138 129 118 108 99 92 87 82 77 70 63 56 51 44 35 26 17 8 1 356 351 347 344 341 339 337 336
191 186 186 185 183 183 180 179 180 179 175 169 164 157 150 145 139 131 121 112 104 97 92 85 76 67 56 47 38 27 16 8 1 355 350 347 343 341 338 337 335 334 333
196 193 192 194 194 193 189 186 184 181 177 170 164 160 154 149 143 136 128 119 111 105 97 86 73 60 45 30 17 6 358 353 349 346 342 339 337 336 334 333 332 331 331
200 198 197 198 200 199 196 193 189 184 178 173 168 165 161 157 152 147 138 130 123 115 102 84 61 36 15 2 354 349 345 343 340 337 335 334 333 333 332 331 330 329 328
204 201 201 202 204 203 201 197 193 188 184 180 176 173 171 168 165 158 152 145 136 126 107 61 11 351 342 338 336 336 334 333 331 330 330 330 330 330 329 329 328 327 326
208 206 206 205 207 206 204 202 197 194 191 188 185 183 181 179 176 171 167 165 167 178 248 308 318 321 322 324 325 326 325 325 325 326 326 327 327 327 326 326 326 325 324
211 210 209 209 208 208 206 204 202 199 197 195 193 193 192 190 188 187 189 198 218 245 273 291 302 307 312 315 318 319 319 320 321 322 322 323 324 324 324 323 323 323 322
215 213 212 210 209 209 209 208 207 206 205 204 204 204 203 203 203 207 217 232 248 264 278 288 296 301 306 310 312 313 314 316 317 317 318 319 320 320 320 320 320 320 320
217 215 214 212 211 213 214 213 213 213 212 212 213 214 215 217 221 227 237 249 260 271 280 288 293 298 302 305 307 309 310 311 312 314 315 316 317 317 317 317 318 318 318
220 218 217 216 216 216 218 219 219 220 220 221 222 224 226 230 235 242 249 258 267 274 281 287 292 297 300 302 303 304 306 307 309 311 312 313 314 314 315 316 316 317 317
222 221 220 220 220 220 222 224 225 226 228 229 231 233 236 240 245 251 257 264 271 277 282 287 292 295 297 299 300 302 304 305 307 308 309 311 312 313 313 314 315 316 316
225 225 224 224 224 226 227 229 230 231 233 235 236 239 242 247 252 257 263 268 273 278 282 287 290 293 295 297 299 300 302 303 305 306 307 309 310 311 312 313 314 315 315
228 228 228 228 229 230 231 232 233 234 236 239 242 245 249 253 257 261 266 270 274 278 282 285 288 291 293 295 297 299 301 302 303 305 306 307 308 310 311 313 313 314 314
230 230 230 231 232 232 233 234 235 238 241 244 246 249 252 255 259 264 268 271 275 279 282 284 287 289 291 293 295 297 299 300 302 303 305 306 307 309 311 312 313 313 314
232 232 233 234 235 235 236 237 239 242 245 247 248 250 253 257 262 266 269 272 276 279 281 284 286 288 290 292 294 296 297 299 301 302 304 305 307 309 310 311 312 313 314
234 234 235 235 236 237 239 240 241 243 245 247 249 253 257 260 263 266 269 273 276 279 281 283 285 287 289 291 293 295 296 298 299 301 303 304 306 308 310 311 312 313 314
235 236 237 238 238 240 241 242 243 244 246 249 252 255 258 261 263 266 269 272 275 278 280 282 284 286 288 290 291 293 295 296 298 299 301 304 305 307 309 311 312 313 313
238 238 239 240 241 242 243 244 245 246 248 250 253 256 259 261 264 266 269 272 275 278 280 282 284 286 288 289 291 292 294 295 297 299 301 303 305 307 309 310 312 312 313